Tracking 31027 objects as of 19-Jul-2025
HD Live streaming from Space Station
objects crossing your sky now

STARLINK-5558

Track STARLINK-5558 now!
10-day predictions
STARLINK-5558 is classified as:


NORAD ID: 55631
Int'l Code: 2023-021D
Perigee: 577.3 km
Apogee: 581.0 km
Inclination: 70.0 °
Period: 96.1 minutes
Semi major axis: 6950 km
RCS: Unknown
Launch date: February 17, 2023
Source: United States (US)
Launch site: AIR FORCE WESTERN TEST RANGE (AFWTR)
Your satellite tracking list
THORAD DELTA 1 DEB
Track 1 satellite(s)




NASA's NSSDC Master Catalog

Two Line Element Set (TLE):
1 55631U 23021D   25199.38333053 -.00000205  00000-0 -93774-5 0  9996
2 55631  69.9998  75.1338 0002664 270.3090  89.7764 14.98330046133206
Source of the keplerian elements: AFSPC